Time,TemperatureF,DewpointF,PressureIn,WindDirection,WindDirectionDegrees,WindSpeedMPH,WindSpeedGustMPH,Humidity,HourlyPrecipIn,Conditions,Clouds,dailyrainin,SolarRadiationWatts/m^2,SoftwareType,DateUTC
2013-04-04 00:03:00,42.0,24.0,-100.00,SW,225,1.0,3.0,49,0.00,,,0.00,0.000000,,2013-04-04 04:03:00,
2013-04-04 00:34:00,41.0,25.0,-100.00,NW,323,2.0,4.0,52,0.00,,,0.00,0.000000,,2013-04-04 04:34:00,
2013-04-04 00:43:00,41.0,25.0,-100.00,NW,323,2.0,4.0,52,0.00,,,0.00,0.000000,,2013-04-04 04:43:00,
2013-04-04 00:53:00,41.0,25.0,-100.00,NW,323,2.0,4.0,52,0.00,,,0.00,0.000000,,2013-04-04 04:53:00,
2013-04-04 01:02:00,41.0,25.0,-100.00,NW,323,2.0,4.0,52,0.00,,,0.00,0.000000,,2013-04-04 05:02:00,
2013-04-04 01:32:00,42.0,23.0,-100.00,WSW,254,3.0,9.0,47,0.00,,,0.00,0.000000,,2013-04-04 05:32:00,
2013-04-04 01:42:00,42.0,23.0,-100.00,WSW,254,3.0,9.0,47,0.00,,,0.00,0.000000,,2013-04-04 05:42:00,
2013-04-04 01:53:00,42.0,23.0,-100.00,WSW,254,3.0,9.0,47,0.00,,,0.00,0.000000,,2013-04-04 05:53:00,
2013-04-04 02:02:00,42.0,23.0,-100.00,WSW,254,3.0,9.0,47,0.00,,,0.00,0.000000,,2013-04-04 06:02:00,
2013-04-04 02:33:00,41.0,26.0,-100.00,NW,317,1.0,5.0,54,0.00,,,0.00,0.000000,,2013-04-04 06:33:00,
2013-04-04 02:43:00,41.0,26.0,-100.00,NW,317,1.0,5.0,54,0.00,,,0.00,0.000000,,2013-04-04 06:43:00,
2013-04-04 02:53:00,41.0,26.0,-100.00,NW,317,1.0,5.0,54,0.00,,,0.00,0.000000,,2013-04-04 06:53:00,
2013-04-04 03:02:00,41.0,26.0,-100.00,NW,317,1.0,5.0,54,0.00,,,0.00,0.000000,,2013-04-04 07:02:00,
2013-04-04 03:22:00,42.0,23.0,-100.00,SW,228,3.0,6.0,46,0.00,,,0.00,0.000000,,2013-04-04 07:22:00,
2013-04-04 03:32:00,42.0,23.0,-100.00,SW,228,3.0,6.0,46,0.00,,,0.00,0.000000,,2013-04-04 07:32:00,
2013-04-04 03:43:00,42.0,23.0,-100.00,SW,228,3.0,6.0,46,0.00,,,0.00,0.000000,,2013-04-04 07:43:00,
2013-04-04 03:53:00,42.0,23.0,-100.00,SW,228,3.0,6.0,46,0.00,,,0.00,0.000000,,2013-04-04 07:53:00,
2013-04-04 04:03:00,42.0,23.0,-100.00,SW,228,3.0,6.0,46,0.00,,,0.00,0.000000,,2013-04-04 08:03:00,
2013-04-04 04:32:00,42.0,16.0,-100.00,SW,233,2.0,11.0,34,0.00,,,0.00,0.000000,,2013-04-04 08:32:00,
2013-04-04 04:44:00,42.0,16.0,-100.00,SW,233,2.0,11.0,34,0.00,,,0.00,0.000000,,2013-04-04 08:44:00,
2013-04-04 04:53:00,42.0,16.0,-100.00,SW,233,2.0,11.0,34,0.00,,,0.00,0.000000,,2013-04-04 08:53:00,
2013-04-04 05:03:00,42.0,16.0,-100.00,SW,233,2.0,11.0,34,0.00,,,0.00,0.000000,,2013-04-04 09:03:00,
2013-04-04 05:04:00,39.0,19.0,-100.00,WNW,300,2.0,6.0,45,0.01,,,0.01,0.000000,,2013-04-04 09:04:00,
2013-04-04 05:34:00,39.0,19.0,-100.00,WNW,300,2.0,6.0,45,0.01,,,0.01,0.000000,,2013-04-04 09:34:00,
2013-04-04 05:44:00,39.0,19.0,-100.00,WNW,300,2.0,6.0,45,0.01,,,0.01,0.000000,,2013-04-04 09:44:00,
2013-04-04 05:54:00,39.0,19.0,-100.00,WNW,300,2.0,6.0,45,0.01,,,0.01,0.000000,,2013-04-04 09:54:00,
2013-04-04 06:34:00,35.0,32.0,-100.00,WNW,290,1.0,5.0,89,0.05,,,0.06,0.000000,,2013-04-04 10:34:00,
2013-04-04 06:43:00,35.0,32.0,-100.00,WNW,290,1.0,5.0,89,0.05,,,0.06,0.000000,,2013-04-04 10:43:00,
2013-04-04 06:54:00,35.0,32.0,-100.00,WNW,290,1.0,5.0,89,0.05,,,0.06,0.000000,,2013-04-04 10:54:00,
2013-04-04 07:03:00,35.0,32.0,-100.00,WNW,290,1.0,5.0,89,0.05,,,0.06,0.000000,,2013-04-04 11:03:00,
2013-04-04 07:23:00,33.0,31.0,-100.00,NNE,16,1.0,4.0,94,0.06,,,0.12,0.000000,,2013-04-04 11:23:00,
2013-04-04 07:33:00,33.0,31.0,-100.00,NNE,16,1.0,4.0,94,0.06,,,0.12,0.000000,,2013-04-04 11:33:00,
2013-04-04 07:43:00,33.0,31.0,-100.00,NNE,16,1.0,4.0,94,0.06,,,0.12,0.000000,,2013-04-04 11:43:00,
2013-04-04 07:55:00,33.0,31.0,-100.00,NNE,16,1.0,4.0,94,0.06,,,0.12,0.000000,,2013-04-04 11:55:00,
2013-04-04 08:03:00,33.0,31.0,-100.00,NNE,16,1.0,4.0,94,0.06,,,0.12,0.000000,,2013-04-04 12:03:00,
2013-04-04 08:33:00,33.0,30.0,-100.00,NW,319,2.0,6.0,90,0.04,,,0.16,5.000000,,2013-04-04 12:33:00,
2013-04-04 08:44:00,33.0,30.0,-100.00,NW,319,2.0,6.0,90,0.04,,,0.16,5.000000,,2013-04-04 12:44:00,
2013-04-04 08:53:00,33.0,30.0,-100.00,NW,319,2.0,6.0,90,0.04,,,0.16,5.000000,,2013-04-04 12:53:00,
2013-04-04 09:03:00,33.0,30.0,-100.00,NW,319,2.0,6.0,90,0.04,,,0.16,5.000000,,2013-04-04 13:03:00,
2013-04-04 09:33:00,33.0,29.0,-100.00,NE,41,3.0,5.0,84,0.01,,,0.17,27.000000,,2013-04-04 13:33:00,
2013-04-04 09:43:00,33.0,29.0,-100.00,NE,41,3.0,5.0,84,0.01,,,0.17,27.000000,,2013-04-04 13:43:00,
2013-04-04 09:53:00,33.0,29.0,-100.00,NE,41,3.0,5.0,84,0.01,,,0.17,27.000000,,2013-04-04 13:53:00,
2013-04-04 10:03:00,33.0,29.0,-100.00,NE,41,3.0,5.0,84,0.01,,,0.17,27.000000,,2013-04-04 14:03:00,
2013-04-04 10:33:00,33.0,30.0,-100.00,NNE,16,3.0,6.0,87,0.03,,,0.20,60.000000,,2013-04-04 14:33:00,
2013-04-04 10:43:00,33.0,30.0,-100.00,NNE,16,3.0,6.0,87,0.03,,,0.20,60.000000,,2013-04-04 14:43:00,
2013-04-04 10:53:00,33.0,30.0,-100.00,NNE,16,3.0,6.0,87,0.03,,,0.20,60.000000,,2013-04-04 14:53:00,
2013-04-04 11:03:00,33.0,30.0,-100.00,NNE,16,3.0,6.0,87,0.03,,,0.20,60.000000,,2013-04-04 15:03:00,
2013-04-04 11:34:00,33.0,29.0,-100.00,NW,323,2.0,6.0,85,0.05,,,0.25,49.000000,,2013-04-04 15:34:00,
2013-04-04 11:43:00,33.0,29.0,-100.00,NW,323,2.0,6.0,85,0.05,,,0.25,49.000000,,2013-04-04 15:43:00,
2013-04-04 11:54:00,33.0,29.0,-100.00,NW,323,2.0,6.0,85,0.05,,,0.25,49.000000,,2013-04-04 15:54:00,
2013-04-04 12:03:00,33.0,29.0,-100.00,NW,323,2.0,6.0,85,0.05,,,0.25,49.000000,,2013-04-04 16:03:00,
2013-04-04 12:25:00,33.0,29.0,-100.00,North,4,3.0,8.0,86,0.05,,,0.30,102.000000,,2013-04-04 16:25:00,
2013-04-04 12:33:00,33.0,29.0,-100.00,North,4,3.0,8.0,86,0.05,,,0.30,102.000000,,2013-04-04 16:33:00,
2013-04-04 12:43:00,33.0,29.0,-100.00,North,4,3.0,8.0,86,0.05,,,0.30,102.000000,,2013-04-04 16:43:00,
2013-04-04 12:55:00,33.0,29.0,-100.00,North,4,3.0,8.0,86,0.05,,,0.30,102.000000,,2013-04-04 16:55:00,
2013-04-04 13:03:00,33.0,29.0,-100.00,North,4,3.0,8.0,86,0.05,,,0.30,102.000000,,2013-04-04 17:03:00,
2013-04-04 13:23:00,32.0,29.0,-100.00,NNE,23,3.0,9.0,90,0.18,,,0.48,46.000000,,2013-04-04 17:23:00,
2013-04-04 13:33:00,32.0,29.0,-100.00,NNE,23,3.0,9.0,90,0.18,,,0.48,46.000000,,2013-04-04 17:33:00,
2013-04-04 13:43:00,32.0,29.0,-100.00,NNE,23,3.0,9.0,90,0.18,,,0.48,46.000000,,2013-04-04 17:43:00,
2013-04-04 13:53:00,32.0,29.0,-100.00,NNE,23,3.0,9.0,90,0.18,,,0.48,46.000000,,2013-04-04 17:53:00,
2013-04-04 14:02:00,32.0,29.0,-100.00,NNE,23,3.0,9.0,90,0.18,,,0.48,46.000000,,2013-04-04 18:02:00,
2013-04-04 14:33:00,31.0,28.0,-100.00,ENE,68,3.0,9.0,90,0.02,,,0.50,60.000000,,2013-04-04 18:33:00,
2013-04-04 14:43:00,31.0,28.0,-100.00,ENE,68,3.0,9.0,90,0.02,,,0.50,60.000000,,2013-04-04 18:43:00,
2013-04-04 14:53:00,31.0,28.0,-100.00,ENE,68,3.0,9.0,90,0.02,,,0.50,60.000000,,2013-04-04 18:53:00,
2013-04-04 15:02:00,31.0,28.0,-100.00,ENE,68,3.0,9.0,90,0.02,,,0.50,60.000000,,2013-04-04 19:02:00,
2013-04-04 15:04:00,32.0,30.0,-100.00,NNE,32,3.0,8.0,93,0.12,,,0.62,56.000000,,2013-04-04 19:04:00,
2013-04-04 15:33:00,32.0,30.0,-100.00,NNE,32,3.0,8.0,93,0.12,,,0.62,56.000000,,2013-04-04 19:33:00,
2013-04-04 15:43:00,32.0,30.0,-100.00,NNE,32,3.0,8.0,93,0.12,,,0.62,56.000000,,2013-04-04 19:43:00,
2013-04-04 15:53:00,32.0,30.0,-100.00,NNE,32,3.0,8.0,93,0.12,,,0.62,56.000000,,2013-04-04 19:53:00,
2013-04-04 16:33:00,33.0,31.0,-100.00,SE,128,1.0,6.0,92,0.10,,,0.72,64.000000,,2013-04-04 20:33:00,
2013-04-04 16:42:00,33.0,31.0,-100.00,SE,128,1.0,6.0,92,0.10,,,0.72,64.000000,,2013-04-04 20:42:00,
2013-04-04 16:53:00,33.0,31.0,-100.00,SE,128,1.0,6.0,92,0.10,,,0.72,64.000000,,2013-04-04 20:53:00,
2013-04-04 17:02:00,33.0,31.0,-100.00,SE,128,1.0,6.0,92,0.10,,,0.72,64.000000,,2013-04-04 21:02:00,
2013-04-04 17:04:00,33.0,32.0,-100.00,ENE,71,2.0,4.0,95,0.07,,,0.79,45.000000,,2013-04-04 21:04:00,
2013-04-04 17:22:00,33.0,32.0,-100.00,ENE,71,2.0,4.0,95,0.07,,,0.79,45.000000,,2013-04-04 21:22:00,
2013-04-04 17:33:00,33.0,32.0,-100.00,ENE,71,2.0,4.0,95,0.07,,,0.79,45.000000,,2013-04-04 21:33:00,
2013-04-04 17:43:00,33.0,32.0,-100.00,ENE,71,2.0,4.0,95,0.07,,,0.79,45.000000,,2013-04-04 21:43:00,
2013-04-04 17:53:00,33.0,32.0,-100.00,ENE,71,2.0,4.0,95,0.07,,,0.79,45.000000,,2013-04-04 21:53:00,
2013-04-04 18:43:00,33.0,32.0,-100.00,ENE,74,1.0,4.0,96,0.13,,,0.92,48.000000,,2013-04-04 22:43:00,
2013-04-04 18:53:00,33.0,32.0,-100.00,ENE,74,1.0,4.0,96,0.13,,,0.92,48.000000,,2013-04-04 22:53:00,
2013-04-04 19:03:00,33.0,32.0,-100.00,ENE,74,1.0,4.0,96,0.13,,,0.92,48.000000,,2013-04-04 23:03:00,
2013-04-04 19:22:00,33.0,32.0,-100.00,SE,126,1.0,3.0,97,0.06,,,0.98,29.000000,,2013-04-04 23:22:00,
2013-04-04 19:32:00,33.0,32.0,-100.00,SE,126,1.0,3.0,97,0.06,,,0.98,29.000000,,2013-04-04 23:32:00,
2013-04-04 19:43:00,33.0,32.0,-100.00,SE,126,1.0,3.0,97,0.06,,,0.98,29.000000,,2013-04-04 23:43:00,
2013-04-04 19:52:00,33.0,32.0,-100.00,SE,126,1.0,3.0,97,0.06,,,0.98,29.000000,,2013-04-04 23:52:00,
2013-04-04 20:02:00,33.0,32.0,-100.00,SE,126,1.0,3.0,97,0.06,,,0.98,29.000000,,2013-04-05 00:02:00,
2013-04-04 20:33:00,33.0,32.0,-100.00,East,92,2.0,3.0,97,0.01,,,0.99,8.000000,,2013-04-05 00:33:00,
2013-04-04 20:43:00,33.0,32.0,-100.00,East,92,2.0,3.0,97,0.01,,,0.99,8.000000,,2013-04-05 00:43:00,
2013-04-04 20:52:00,33.0,32.0,-100.00,East,92,2.0,3.0,97,0.01,,,0.99,8.000000,,2013-04-05 00:52:00,
2013-04-04 21:02:00,33.0,32.0,-100.00,East,92,2.0,3.0,97,0.01,,,0.99,8.000000,,2013-04-05 01:02:00,
2013-04-04 21:32:00,33.0,32.0,-100.00,East,97,1.0,3.0,98,0.00,,,0.99,0.000000,,2013-04-05 01:32:00,
2013-04-04 21:42:00,33.0,32.0,-100.00,East,97,1.0,3.0,98,0.00,,,0.99,0.000000,,2013-04-05 01:42:00,
2013-04-04 21:54:00,33.0,32.0,-100.00,East,97,1.0,3.0,98,0.00,,,0.99,0.000000,,2013-04-05 01:54:00,
2013-04-04 22:03:00,33.0,32.0,-100.00,East,97,1.0,3.0,98,0.00,,,0.99,0.000000,,2013-04-05 02:03:00,
2013-04-04 22:32:00,33.0,32.0,-100.00,ESE,112,0.0,3.0,98,0.01,,,1.00,0.000000,,2013-04-05 02:32:00,
2013-04-04 22:42:00,33.0,32.0,-100.00,ESE,112,0.0,3.0,98,0.01,,,1.00,0.000000,,2013-04-05 02:42:00,
2013-04-04 22:52:00,33.0,32.0,-100.00,ESE,112,0.0,3.0,98,0.01,,,1.00,0.000000,,2013-04-05 02:52:00,
2013-04-04 23:02:00,33.0,32.0,-100.00,ESE,112,0.0,3.0,98,0.01,,,1.00,0.000000,,2013-04-05 03:02:00,
2013-04-04 23:33:00,33.0,32.0,-100.00,WSW,258,1.0,2.0,98,0.00,,,1.00,0.000000,,2013-04-05 03:33:00,
2013-04-04 23:43:00,33.0,32.0,-100.00,WSW,258,1.0,2.0,98,0.00,,,1.00,0.000000,,2013-04-05 03:43:00,
2013-04-04 23:54:00,33.0,32.0,-100.00,WSW,258,1.0,2.0,98,0.00,,,1.00,0.000000,,2013-04-05 03:54:00,